This is the latest recevied weather packets stored in our database for station/object LZ0VRC-10. If no packets are shown the sender has not sent any weather packets the latest 10 day(s).
| Time | Temp. | Humidity | Pressure | Rain* | Wind** | Luminosity | Snow |
|---|---|---|---|---|---|---|---|
| 1777433314 | 12.78° C | 55% | 1017.7 hPa | - | - | - | - |
| 1777432414 | 12.78° C | 58% | 1017.4 hPa | - | - | - | - |
| 1777431514 | 12.22° C | 59% | 1017.3 hPa | - | - | - | - |
| 1777430619 | 12.78° C | 57% | 1017.6 hPa | - | - | - | - |
| 1777430614 | 12.78° C | 57% | 1017.6 hPa | - | - | - | - |
| 1777429719 | 13.33° C | 54% | 1017.5 hPa | - | - | - | - |
| 1777429714 | 13.33° C | 54% | 1017.5 hPa | - | - | - | - |
| 1777428814 | 12.78° C | 54% | 1017.1 hPa | - | - | - | - |
| 1777427919 | 12.78° C | 54% | 1016.9 hPa | - | - | - | - |
| 1777427914 | 12.78° C | 54% | 1016.9 hPa | - | - | - | - |
| 1777427019 | 12.78° C | 53% | 1016.8 hPa | - | - | - | - |
| 1777427014 | 12.78° C | 53% | 1016.8 hPa | - | - | - | - |
| 1777426119 | 12.78° C | 53% | 1016.9 hPa | - | - | - | - |
| 1777426114 | 12.78° C | 53% | 1016.9 hPa | - | - | - | - |
| 1777425219 | 12.78° C | 53% | 1017 hPa | - | - | - | - |
| 1777425214 | 12.78° C | 53% | 1017 hPa | - | - | - | - |
| 1777424319 | 12.78° C | 54% | 1016.9 hPa | - | - | - | - |
| 1777424314 | 12.78° C | 54% | 1016.9 hPa | - | - | - | - |
| 1777423414 | 12.78° C | 53% | 1016.9 hPa | - | - | - | - |
| 1777422519 | 12.78° C | 54% | 1017 hPa | - | - | - | - |
| 1777422514 | 12.78° C | 54% | 1017 hPa | - | - | - | - |
| 1777421619 | 12.78° C | 53% | 1017 hPa | - | - | - | - |
| 1777421615 | 12.78° C | 53% | 1017 hPa | - | - | - | - |
| 1777420720 | 12.78° C | 54% | 1017 hPa | - | - | - | - |
| 1777420714 | 12.78° C | 54% | 1017 hPa | - | - | - | - |
* Rain since midnight (hover to see other rain measurements)
** Current wind speed in m/s (hover to see current wind gust speed)